User: anonymous   Login
Location: *
(0.1100°N, 5.5000°E)
Time: 21:23:17
(UTC+00:00)
Language:

DELTA 1 DEB - Orbit

View from above orbital plane
View from above orbital plane
View from above satellite
View from above satellite

Ground track
Ground track

The orbit data is extracted from the following two-line orbital elements,

1 27726U 75004HS  24146.59155297  .00000347  00000-0  15643-3 0  9996
2 27726  97.8155 203.7853 0106748 216.5680 142.8181 14.24412226228390
Epoch (UTC): 25 May 2024 14:11:50
Eccentricity: 0.0106748
inclination: 97.8155°
perigee height: 734 km
apogee height: 887 km
right ascension of ascending node: 203.7853°
argument of perigee: 216.5680°
revolutions per day: 14.24412226
mean anomaly at epoch: 142.8181°
orbit number at epoch: 22839

The dashed part of the orbit path shows where the satellite is in the earth's shadow,  

DLR